Time,TemperatureF,DewpointF,PressureIn,WindDirection,WindDirectionDegrees,WindSpeedMPH,WindSpeedGustMPH,Humidity,HourlyPrecipIn,Conditions,Clouds,dailyrainin,SoftwareType,DateUTC
2013-03-28 00:04:00,43.7,25.8,30.25,SSE,166,0.0,0.0,49,0.00,CLR,,0.00,WeatherDisplay:10.37,2013-03-28 05:04:00,
2013-03-28 00:09:00,43.5,25.6,30.25,SSE,166,0.0,0.0,49,0.00,CLR,,0.00,WeatherDisplay:10.37,2013-03-28 05:09:00,
2013-03-28 00:14:00,43.3,25.4,30.25,SSE,166,0.0,0.0,49,0.00,CLR,,0.00,WeatherDisplay:10.37,2013-03-28 05:14:00,
2013-03-28 00:19:00,43.3,25.4,30.25,SSE,166,0.0,0.0,49,0.00,CLR,,0.00,WeatherDisplay:10.37,2013-03-28 05:19:00,
2013-03-28 00:24:00,43.0,25.1,30.25,SSE,166,0.0,0.0,49,0.00,CLR,,0.00,WeatherDisplay:10.37,2013-03-28 05:24:00,
2013-03-28 00:29:00,42.8,24.9,30.25,SSE,166,0.0,0.0,49,0.00,CLR,,0.00,WeatherDisplay:10.37,2013-03-28 05:29:00,
2013-03-28 00:34:00,42.6,24.8,30.25,SSE,166,0.0,0.0,49,0.00,CLR,,0.00,WeatherDisplay:10.37,2013-03-28 05:34:00,
2013-03-28 00:39:00,42.6,24.8,30.25,SSE,166,0.0,0.0,49,0.00,CLR,,0.00,WeatherDisplay:10.37,2013-03-28 05:39:00,
2013-03-28 00:44:00,42.6,26.2,30.25,SSE,165,0.0,0.0,52,0.00,CLR,,0.00,WeatherDisplay:10.37,2013-03-28 05:44:00,
2013-03-28 00:49:00,42.6,26.2,30.25,SSE,166,0.0,0.0,52,0.00,CLR,,0.00,WeatherDisplay:10.37,2013-03-28 05:49:00,
2013-03-28 00:54:00,42.4,26.0,30.25,SSE,166,0.0,0.0,52,0.00,CLR,,0.00,WeatherDisplay:10.37,2013-03-28 05:54:00,
2013-03-28 00:59:00,42.4,26.0,30.25,SSE,166,0.0,0.0,52,0.00,CLR,,0.00,WeatherDisplay:10.37,2013-03-28 05:59:00,
2013-03-28 01:04:00,42.4,26.0,30.25,SSE,166,0.0,0.0,52,0.00,CLR,,0.00,WeatherDisplay:10.37,2013-03-28 06:04:00,
2013-03-28 01:09:00,42.4,26.0,30.25,SSE,166,0.0,0.0,52,0.00,CLR,,0.00,WeatherDisplay:10.37,2013-03-28 06:09:00,
2013-03-28 01:14:00,42.6,26.2,30.25,SSE,166,0.0,0.0,52,0.00,CLR,,0.00,WeatherDisplay:10.37,2013-03-28 06:14:00,
2013-03-28 01:19:00,42.6,26.2,30.25,SSE,166,0.0,0.0,52,0.00,CLR,,0.00,WeatherDisplay:10.37,2013-03-28 06:19:00,
2013-03-28 01:24:00,42.4,26.0,30.25,SSE,166,0.0,0.0,52,0.00,CLR,,0.00,WeatherDisplay:10.37,2013-03-28 06:24:00,
2013-03-28 01:30:00,42.4,26.0,30.25,SSE,166,0.0,0.0,52,0.00,CLR,,0.00,WeatherDisplay:10.37,2013-03-28 06:30:00,
2013-03-28 01:35:00,42.6,27.1,30.25,SSE,166,0.0,0.0,54,0.00,CLR,,0.00,WeatherDisplay:10.37,2013-03-28 06:35:00,
2013-03-28 01:40:00,42.6,27.1,30.25,SSE,166,0.0,0.0,54,0.00,CLR,,0.00,WeatherDisplay:10.37,2013-03-28 06:40:00,
2013-03-28 01:45:00,42.8,27.3,30.25,SSE,166,0.0,0.0,54,0.00,CLR,,0.00,WeatherDisplay:10.37,2013-03-28 06:45:00,
2013-03-28 01:50:00,43.0,27.5,30.25,SSE,166,0.0,0.0,54,0.00,CLR,,0.00,WeatherDisplay:10.37,2013-03-28 06:50:00,
2013-03-28 01:55:00,43.0,27.5,30.25,SSE,166,0.0,0.0,54,0.00,CLR,,0.00,WeatherDisplay:10.37,2013-03-28 06:55:00,
2013-03-28 02:00:00,43.0,26.1,30.25,SSE,166,0.0,0.0,51,0.00,CLR,,0.00,WeatherDisplay:10.37,2013-03-28 07:00:00,
2013-03-28 02:05:00,43.0,26.1,30.25,SSE,166,0.0,0.0,51,0.00,CLR,,0.00,WeatherDisplay:10.37,2013-03-28 07:05:00,
2013-03-28 02:10:00,43.0,26.1,30.25,SSE,166,0.0,0.0,51,0.00,CLR,,0.00,WeatherDisplay:10.37,2013-03-28 07:10:00,
2013-03-28 02:15:00,43.3,26.4,30.25,SSE,166,0.0,0.0,51,0.00,CLR,,0.00,WeatherDisplay:10.37,2013-03-28 07:15:00,
2013-03-28 02:20:00,43.3,26.4,30.25,SSE,166,0.0,0.0,51,0.00,CLR,,0.00,WeatherDisplay:10.37,2013-03-28 07:20:00,
2013-03-28 02:25:00,43.2,26.2,30.25,SSE,166,0.0,0.0,51,0.00,CLR,,0.00,WeatherDisplay:10.37,2013-03-28 07:25:00,
2013-03-28 02:34:00,43.2,26.2,30.25,SSE,166,0.0,0.0,51,0.00,CLR,,0.00,WeatherDisplay:10.37,2013-03-28 07:34:00,
2013-03-28 02:39:00,43.3,26.4,30.25,SSE,166,0.0,0.0,51,0.00,CLR,,0.00,WeatherDisplay:10.37,2013-03-28 07:39:00,
2013-03-28 02:44:00,43.3,26.4,30.25,SSE,166,0.0,0.0,51,0.00,CLR,,0.00,WeatherDisplay:10.37,2013-03-28 07:44:00,
2013-03-28 02:49:00,43.3,26.4,30.25,SSE,166,0.0,0.0,51,0.00,CLR,,0.00,WeatherDisplay:10.37,2013-03-28 07:49:00,
2013-03-28 02:54:00,43.3,26.4,30.25,SSE,166,0.0,0.0,51,0.00,CLR,,0.00,WeatherDisplay:10.37,2013-03-28 07:54:00,
2013-03-28 02:59:00,43.3,26.4,30.25,SSE,166,0.0,0.0,51,0.00,CLR,,0.00,WeatherDisplay:10.37,2013-03-28 07:59:00,
2013-03-28 03:04:00,43.2,26.2,30.25,SSE,166,0.0,0.0,51,0.00,CLR,,0.00,WeatherDisplay:10.37,2013-03-28 08:04:00,
2013-03-28 03:09:00,43.2,26.2,30.22,SSE,166,0.0,0.0,51,0.00,CLR,,0.00,WeatherDisplay:10.37,2013-03-28 08:09:00,
2013-03-28 03:14:00,43.2,26.2,30.22,SSE,166,0.0,0.0,51,0.00,CLR,,0.00,WeatherDisplay:10.37,2013-03-28 08:14:00,
2013-03-28 03:19:00,43.0,26.1,30.22,SSE,166,0.0,0.0,51,0.00,CLR,,0.00,WeatherDisplay:10.37,2013-03-28 08:19:00,
2013-03-28 03:24:00,42.8,25.9,30.25,SSE,166,0.0,0.0,51,0.00,CLR,,0.00,WeatherDisplay:10.37,2013-03-28 08:24:00,
2013-03-28 03:29:00,42.8,25.9,30.25,SSE,166,0.0,0.0,51,0.00,CLR,,0.00,WeatherDisplay:10.37,2013-03-28 08:29:00,
2013-03-28 03:34:00,42.8,25.9,30.22,SSE,166,0.0,0.0,51,0.00,CLR,,0.00,WeatherDisplay:10.37,2013-03-28 08:34:00,
2013-03-28 03:39:00,42.8,25.9,30.22,SSE,166,0.0,0.0,51,0.00,CLR,,0.00,WeatherDisplay:10.37,2013-03-28 08:39:00,
2013-03-28 03:44:00,42.8,25.9,30.22,SSE,166,0.0,0.0,51,0.00,CLR,,0.00,WeatherDisplay:10.37,2013-03-28 08:44:00,
2013-03-28 03:49:00,42.8,25.9,30.22,SSE,166,0.0,0.0,51,0.00,CLR,,0.00,WeatherDisplay:10.37,2013-03-28 08:49:00,
2013-03-28 03:54:00,42.6,26.2,30.22,SSE,166,0.0,0.0,52,0.00,CLR,,0.00,WeatherDisplay:10.37,2013-03-28 08:54:00,
2013-03-28 03:59:00,42.6,26.2,30.22,SSE,165,0.0,0.0,52,0.00,CLR,,0.00,WeatherDisplay:10.37,2013-03-28 08:59:00,
2013-03-28 04:04:00,42.6,26.2,30.22,SSE,165,0.0,0.0,52,0.00,CLR,,0.00,WeatherDisplay:10.37,2013-03-28 09:04:00,
2013-03-28 04:09:00,42.6,26.2,30.22,SSE,166,0.0,0.0,52,0.00,CLR,,0.00,WeatherDisplay:10.37,2013-03-28 09:09:00,
2013-03-28 04:14:00,42.6,26.2,30.22,SSE,166,0.0,0.0,52,0.00,CLR,,0.00,WeatherDisplay:10.37,2013-03-28 09:14:00,
2013-03-28 04:19:00,42.8,25.9,30.22,SSE,166,0.0,0.0,51,0.00,CLR,,0.00,WeatherDisplay:10.37,2013-03-28 09:19:00,
2013-03-28 04:24:00,42.8,25.9,30.22,SSE,166,0.0,0.0,51,0.00,CLR,,0.00,WeatherDisplay:10.37,2013-03-28 09:24:00,
2013-03-28 04:29:00,42.8,25.9,30.22,SSE,166,0.0,0.0,51,0.00,CLR,,0.00,WeatherDisplay:10.37,2013-03-28 09:29:00,
2013-03-28 04:34:00,42.8,25.9,30.22,SSE,166,0.0,0.0,51,0.00,CLR,,0.00,WeatherDisplay:10.37,2013-03-28 09:34:00,
2013-03-28 04:39:00,42.8,25.9,30.22,SSE,166,0.0,0.0,51,0.00,CLR,,0.00,WeatherDisplay:10.37,2013-03-28 09:39:00,
2013-03-28 04:44:00,42.6,26.2,30.22,SSE,166,0.0,0.0,52,0.00,CLR,,0.00,WeatherDisplay:10.37,2013-03-28 09:44:00,
2013-03-28 04:49:00,42.8,25.9,30.22,SSE,166,0.0,0.0,51,0.00,CLR,,0.00,WeatherDisplay:10.37,2013-03-28 09:49:00,
2013-03-28 04:54:00,42.8,25.9,30.22,SSE,166,0.0,0.0,51,0.00,CLR,,0.00,WeatherDisplay:10.37,2013-03-28 09:54:00,
2013-03-28 04:59:00,42.8,25.9,30.22,SSE,166,0.0,0.0,51,0.00,CLR,,0.00,WeatherDisplay:10.37,2013-03-28 09:59:00,
2013-03-28 05:04:00,42.8,24.9,30.22,SSE,166,0.0,0.0,49,0.00,CLR,,0.00,WeatherDisplay:10.37,2013-03-28 10:04:00,
2013-03-28 05:09:00,42.8,24.9,30.22,SSE,166,0.0,0.0,49,0.00,CLR,,0.00,WeatherDisplay:10.37,2013-03-28 10:09:00,
2013-03-28 05:14:00,43.0,25.1,30.22,SSE,166,0.0,0.0,49,0.00,CLR,,0.00,WeatherDisplay:10.37,2013-03-28 10:14:00,
2013-03-28 05:19:00,43.0,25.1,30.25,SSE,165,0.0,0.0,49,0.00,CLR,,0.00,WeatherDisplay:10.37,2013-03-28 10:19:00,
2013-03-28 05:24:00,43.0,25.1,30.25,SSE,160,0.0,0.0,49,0.00,CLR,,0.00,WeatherDisplay:10.37,2013-03-28 10:24:00,
2013-03-28 05:29:00,43.2,25.3,30.25,SE,135,0.0,0.0,49,0.00,CLR,,0.00,WeatherDisplay:10.37,2013-03-28 10:29:00,
2013-03-28 05:34:00,43.0,25.1,30.25,SE,134,2.7,3.5,49,0.00,CLR,,0.00,WeatherDisplay:10.37,2013-03-28 10:34:00,
2013-03-28 05:39:00,43.0,26.1,30.25,SE,134,2.7,3.5,51,0.00,CLR,,0.00,WeatherDisplay:10.37,2013-03-28 10:39:00,
2013-03-28 05:44:00,43.0,26.1,30.25,SE,134,2.2,2.3,51,0.00,CLR,,0.00,WeatherDisplay:10.37,2013-03-28 10:44:00,
2013-03-28 05:50:00,42.8,25.9,30.25,SE,134,2.2,3.5,51,0.00,CLR,,0.00,WeatherDisplay:10.37,2013-03-28 10:50:00,
2013-03-28 05:55:00,42.8,25.9,30.25,SE,134,0.0,2.7,51,0.00,CLR,,0.00,WeatherDisplay:10.37,2013-03-28 10:55:00,
2013-03-28 06:00:00,42.8,25.9,30.25,SE,134,2.2,3.5,51,0.00,CLR,,0.00,WeatherDisplay:10.37,2013-03-28 11:00:00,
2013-03-28 06:05:00,42.6,26.2,30.25,SE,134,2.7,3.5,52,0.00,CLR,,0.00,WeatherDisplay:10.37,2013-03-28 11:05:00,
2013-03-28 06:10:00,42.6,26.2,30.25,SE,134,0.0,2.7,52,0.00,CLR,,0.00,WeatherDisplay:10.37,2013-03-28 11:10:00,
2013-03-28 06:15:00,42.6,26.2,30.25,SE,134,2.2,2.3,52,0.00,CLR,,0.00,WeatherDisplay:10.37,2013-03-28 11:15:00,
2013-03-28 06:20:00,42.4,26.0,30.25,SE,134,2.2,3.1,52,0.00,CLR,,0.00,WeatherDisplay:10.37,2013-03-28 11:20:00,
2013-03-28 06:25:00,42.6,26.2,30.25,SE,134,2.7,3.5,52,0.00,CLR,,0.00,WeatherDisplay:10.37,2013-03-28 11:25:00,
2013-03-28 06:30:00,42.6,26.2,30.25,SE,134,2.2,3.5,52,0.00,CLR,,0.00,WeatherDisplay:10.37,2013-03-28 11:30:00,
2013-03-28 06:35:00,42.4,26.0,30.25,SE,134,2.2,2.3,52,0.00,CLR,,0.00,WeatherDisplay:10.37,2013-03-28 11:35:00,
2013-03-28 06:40:00,42.4,26.0,30.25,SE,134,2.7,3.5,52,0.00,CLR,,0.00,WeatherDisplay:10.37,2013-03-28 11:40:00,
2013-03-28 06:45:00,42.4,26.0,30.25,SE,134,2.7,3.5,52,0.00,CLR,,0.00,WeatherDisplay:10.37,2013-03-28 11:45:00,
2013-03-28 06:50:00,42.4,26.0,30.25,SE,134,2.2,2.3,52,0.00,CLR,,0.00,WeatherDisplay:10.37,2013-03-28 11:50:00,
2013-03-28 06:55:00,42.4,26.0,30.25,SE,134,2.7,3.1,52,0.00,CLR,,0.00,WeatherDisplay:10.37,2013-03-28 11:55:00,
2013-03-28 07:00:00,42.4,26.0,30.25,SE,133,2.2,3.5,52,0.00,CLR,,0.00,WeatherDisplay:10.37,2013-03-28 12:00:00,
2013-03-28 07:05:00,42.4,26.0,30.25,SE,133,0.0,2.3,52,0.00,CLR,,0.00,WeatherDisplay:10.37,2013-03-28 12:05:00,
2013-03-28 07:10:00,42.4,27.0,30.25,SE,133,0.0,2.3,54,0.00,CLR,,0.00,WeatherDisplay:10.37,2013-03-28 12:10:00,
2013-03-28 07:15:00,42.4,27.0,30.25,SE,133,2.2,2.3,54,0.00,CLR,,0.00,WeatherDisplay:10.37,2013-03-28 12:15:00,
2013-03-28 07:20:00,42.4,27.0,30.25,SE,133,2.2,2.3,54,0.00,CLR,,0.00,WeatherDisplay:10.37,2013-03-28 12:20:00,
2013-03-28 07:25:00,42.4,27.0,30.25,SE,135,2.7,3.5,54,0.00,CLR,,0.00,WeatherDisplay:10.37,2013-03-28 12:25:00,
2013-03-28 07:30:00,42.4,27.0,30.25,SE,134,2.7,3.5,54,0.00,CLR,,0.00,WeatherDisplay:10.37,2013-03-28 12:30:00,
2013-03-28 07:35:00,42.6,27.1,30.25,SE,134,0.0,2.3,54,0.00,CLR,,0.00,WeatherDisplay:10.37,2013-03-28 12:35:00,
2013-03-28 07:40:00,42.6,27.1,30.25,SE,134,2.2,3.5,54,0.00,CLR,,0.00,WeatherDisplay:10.37,2013-03-28 12:40:00,
2013-03-28 07:45:00,42.8,27.3,30.25,SE,134,0.0,0.0,54,0.00,CLR,,0.00,WeatherDisplay:10.37,2013-03-28 12:45:00,
2013-03-28 07:50:00,43.0,27.5,30.25,SE,134,0.0,0.0,54,0.00,CLR,,0.00,WeatherDisplay:10.37,2013-03-28 12:50:00,
2013-03-28 07:55:00,43.2,27.6,30.25,SE,134,0.0,0.0,54,0.00,CLR,,0.00,WeatherDisplay:10.37,2013-03-28 12:55:00,
2013-03-28 08:00:00,43.3,27.8,30.25,SE,134,0.0,0.0,54,0.00,CLR,,0.00,WeatherDisplay:10.37,2013-03-28 13:00:00,
2013-03-28 08:05:00,43.5,26.6,30.25,SE,134,0.0,0.0,51,0.00,CLR,,0.00,WeatherDisplay:10.37,2013-03-28 13:05:00,
2013-03-28 08:10:00,43.7,26.7,30.25,SE,134,0.0,2.3,51,0.00,CLR,,0.00,WeatherDisplay:10.37,2013-03-28 13:10:00,
2013-03-28 08:15:00,44.1,27.1,30.25,SE,133,2.2,3.5,51,0.00,CLR,,0.00,WeatherDisplay:10.37,2013-03-28 13:15:00,
2013-03-28 08:20:00,44.2,27.2,30.25,SE,133,2.7,3.5,51,0.00,CLR,,0.00,WeatherDisplay:10.37,2013-03-28 13:20:00,
2013-03-28 08:25:00,44.6,27.6,30.25,SE,128,2.7,3.5,51,0.00,CLR,,0.00,WeatherDisplay:10.37,2013-03-28 13:25:00,
2013-03-28 08:30:00,45.0,26.4,30.25,SE,128,2.7,3.5,48,0.00,CLR,,0.00,WeatherDisplay:10.37,2013-03-28 13:30:00,
2013-03-28 08:35:00,45.3,26.8,30.28,SE,128,0.0,0.0,48,0.00,CLR,,0.00,WeatherDisplay:10.37,2013-03-28 13:35:00,
2013-03-28 08:40:00,45.5,26.9,30.28,SE,136,3.1,3.5,48,0.00,CLR,,0.00,WeatherDisplay:10.37,2013-03-28 13:40:00,
2013-03-28 08:45:00,45.9,27.3,30.28,SE,133,2.2,3.5,48,0.00,CLR,,0.00,WeatherDisplay:10.37,2013-03-28 13:45:00,
2013-03-28 08:50:00,46.0,27.4,30.28,ESE,122,2.2,3.5,48,0.00,CLR,,0.00,WeatherDisplay:10.37,2013-03-28 13:50:00,
2013-03-28 08:55:00,46.4,27.8,30.28,South,187,0.0,0.0,48,0.00,CLR,,0.00,WeatherDisplay:10.37,2013-03-28 13:55:00,
2013-03-28 09:00:00,46.6,27.9,30.28,SE,125,3.1,4.6,48,0.00,CLR,,0.00,WeatherDisplay:10.37,2013-03-28 14:00:00,
2013-03-28 09:05:00,46.8,28.1,30.28,SE,136,3.1,4.6,48,0.00,CLR,,0.00,WeatherDisplay:10.37,2013-03-28 14:05:00,
2013-03-28 09:10:00,46.9,28.3,30.28,SSE,151,2.7,3.5,48,0.00,CLR,,0.00,WeatherDisplay:10.37,2013-03-28 14:10:00,
2013-03-28 09:15:00,47.1,28.4,30.28,SE,126,2.7,3.5,48,0.00,CLR,,0.00,WeatherDisplay:10.37,2013-03-28 14:15:00,
2013-03-28 09:20:00,47.5,28.7,30.28,SSE,152,3.6,3.6,48,0.00,CLR,,0.00,WeatherDisplay:10.37,2013-03-28 14:20:00,
2013-03-28 09:25:00,48.0,29.2,30.28,SE,139,0.0,2.3,48,0.00,CLR,,0.00,WeatherDisplay:10.37,2013-03-28 14:25:00,
2013-03-28 09:30:00,48.6,29.2,30.28,SE,128,3.1,3.5,47,0.00,CLR,,0.00,WeatherDisplay:10.37,2013-03-28 14:30:00,
2013-03-28 09:35:00,48.9,29.6,30.28,SE,145,3.1,5.8,47,0.00,CLR,,0.00,WeatherDisplay:10.37,2013-03-28 14:35:00,
2013-03-28 09:40:00,49.5,29.0,30.28,SE,126,3.6,8.1,45,0.00,CLR,,0.00,WeatherDisplay:10.37,2013-03-28 14:40:00,
2013-03-28 09:45:00,49.8,29.3,30.28,SSE,157,2.7,3.5,45,0.00,CLR,,0.00,WeatherDisplay:10.37,2013-03-28 14:45:00,
2013-03-28 09:50:00,50.2,29.6,30.28,SSE,160,3.6,4.6,45,0.00,CLR,,0.00,WeatherDisplay:10.37,2013-03-28 14:50:00,
2013-03-28 09:55:00,50.7,31.2,30.28,East,80,2.2,3.5,47,0.00,CLR,,0.00,WeatherDisplay:10.37,2013-03-28 14:55:00,
2013-03-28 10:00:00,51.3,30.6,30.28,SSE,147,4.0,5.8,45,0.00,CLR,,0.00,WeatherDisplay:10.37,2013-03-28 15:00:00,
2013-03-28 10:05:00,51.4,30.8,30.28,SSW,205,3.1,3.5,45,0.00,CLR,,0.00,WeatherDisplay:10.37,2013-03-28 15:05:00,
2013-03-28 10:10:00,51.6,30.9,30.28,SE,146,3.6,3.6,45,0.00,CLR,,0.00,WeatherDisplay:10.37,2013-03-28 15:10:00,
2013-03-28 10:15:00,51.4,30.8,30.28,ESE,108,5.4,5.4,45,0.00,CLR,,0.00,WeatherDisplay:10.37,2013-03-28 15:15:00,
2013-03-28 10:20:00,52.0,30.7,30.28,SE,136,3.6,5.8,44,0.00,CLR,,0.00,WeatherDisplay:10.37,2013-03-28 15:20:00,
2013-03-28 10:25:00,52.7,31.4,30.28,SE,146,4.5,5.8,44,0.00,CLR,,0.00,WeatherDisplay:10.37,2013-03-28 15:25:00,
2013-03-28 10:30:00,53.6,32.2,30.28,SE,135,3.6,5.8,44,0.00,CLR,,0.00,WeatherDisplay:10.37,2013-03-28 15:30:00,
2013-03-28 10:35:00,54.5,33.0,30.28,SSE,168,3.1,5.8,44,0.00,CLR,,0.00,WeatherDisplay:10.37,2013-03-28 15:35:00,
2013-03-28 10:40:00,55.9,33.7,30.28,SSW,192,4.0,4.0,43,0.00,CLR,,0.00,WeatherDisplay:10.37,2013-03-28 15:40:00,
2013-03-28 10:45:00,56.3,34.1,30.28,SSE,158,4.9,6.9,43,0.00,CLR,,0.00,WeatherDisplay:10.37,2013-03-28 15:45:00,
2013-03-28 10:50:00,55.9,33.7,30.28,SSW,196,6.3,6.9,43,0.00,CLR,,0.00,WeatherDisplay:10.37,2013-03-28 15:50:00,
2013-03-28 10:55:00,55.2,33.7,30.28,East,97,4.0,5.8,44,0.00,CLR,,0.00,WeatherDisplay:10.37,2013-03-28 15:55:00,
2013-03-28 11:00:00,55.0,33.5,30.28,SE,124,2.7,3.5,44,0.00,CLR,,0.00,WeatherDisplay:10.37,2013-03-28 16:00:00,
2013-03-28 11:05:00,55.0,33.5,30.28,SE,143,3.6,5.8,44,0.00,CLR,,0.00,WeatherDisplay:10.37,2013-03-28 16:05:00,
2013-03-28 11:10:00,55.0,33.5,30.28,SE,131,3.1,5.8,44,0.00,CLR,,0.00,WeatherDisplay:10.37,2013-03-28 16:10:00,
2013-03-28 11:15:00,55.0,33.5,30.28,SSE,149,2.2,4.6,44,0.00,CLR,,0.00,WeatherDisplay:10.37,2013-03-28 16:15:00,
2013-03-28 11:20:00,54.9,33.3,30.28,SE,129,4.0,4.0,44,0.00,CLR,,0.00,WeatherDisplay:10.37,2013-03-28 16:20:00,
2013-03-28 11:25:00,54.9,33.3,30.28,SE,144,4.5,5.8,44,0.00,CLR,,0.00,WeatherDisplay:10.37,2013-03-28 16:25:00,
2013-03-28 11:30:00,54.5,33.0,30.28,South,179,5.4,5.8,44,0.00,CLR,,0.00,WeatherDisplay:10.37,2013-03-28 16:30:00,
2013-03-28 11:35:00,54.3,32.8,30.28,SE,138,4.0,4.6,44,0.00,CLR,,0.00,WeatherDisplay:10.37,2013-03-28 16:35:00,
2013-03-28 11:40:00,54.0,32.5,30.28,SE,138,4.5,5.8,44,0.00,CLR,,0.00,WeatherDisplay:10.37,2013-03-28 16:40:00,
2013-03-28 11:45:00,54.1,32.7,30.28,SE,144,4.5,5.8,44,0.00,CLR,,0.00,WeatherDisplay:10.37,2013-03-28 16:45:00,
2013-03-28 11:50:00,54.5,33.0,30.25,SSE,153,3.1,5.8,44,0.00,CLR,,0.00,WeatherDisplay:10.37,2013-03-28 16:50:00,
2013-03-28 11:55:00,55.6,33.4,30.25,SE,138,4.0,5.8,43,0.00,CLR,,0.00,WeatherDisplay:10.37,2013-03-28 16:55:00,
2013-03-28 12:00:00,56.7,34.4,30.25,SE,137,4.9,5.8,43,0.00,CLR,,0.00,WeatherDisplay:10.37,2013-03-28 17:00:00,
2013-03-28 12:05:00,57.2,34.9,30.25,SE,133,4.5,5.8,43,0.00,CLR,,0.00,WeatherDisplay:10.37,2013-03-28 17:05:00,
2013-03-28 12:10:00,57.2,34.9,30.25,ESE,115,3.6,5.8,43,0.00,CLR,,0.00,WeatherDisplay:10.37,2013-03-28 17:10:00,
2013-03-28 12:15:00,57.2,34.9,30.25,ESE,112,4.5,5.8,43,0.00,CLR,,0.00,WeatherDisplay:10.37,2013-03-28 17:15:00,
2013-03-28 12:20:00,57.0,34.7,30.25,SSE,152,4.0,5.8,43,0.00,CLR,,0.00,WeatherDisplay:10.37,2013-03-28 17:20:00,
2013-03-28 12:25:00,57.2,34.9,30.25,SE,128,4.5,5.8,43,0.00,CLR,,0.00,WeatherDisplay:10.37,2013-03-28 17:25:00,
2013-03-28 12:30:00,57.9,35.5,30.25,ESE,109,3.6,5.8,43,0.00,CLR,,0.00,WeatherDisplay:10.37,2013-03-28 17:30:00,
2013-03-28 12:35:00,58.1,35.7,30.25,SE,125,3.6,5.8,43,0.00,CLR,,0.00,WeatherDisplay:10.37,2013-03-28 17:35:00,
2013-03-28 12:40:00,58.3,35.9,30.25,SE,129,2.7,3.5,43,0.00,CLR,,0.00,WeatherDisplay:10.37,2013-03-28 17:40:00,
2013-03-28 12:45:00,59.2,36.7,30.25,SE,141,4.5,5.8,43,0.00,CLR,,0.00,WeatherDisplay:10.37,2013-03-28 17:45:00,
2013-03-28 12:50:00,60.3,37.7,30.25,South,181,5.8,8.1,43,0.00,CLR,,0.00,WeatherDisplay:10.37,2013-03-28 17:50:00,
2013-03-28 12:55:00,60.8,37.5,30.25,ESE,117,5.8,10.4,42,0.00,CLR,,0.00,WeatherDisplay:10.37,2013-03-28 17:55:00,
2013-03-28 13:00:00,60.4,37.8,30.25,ESE,103,2.2,3.5,43,0.00,CLR,,0.00,WeatherDisplay:10.37,2013-03-28 18:00:00,
2013-03-28 13:05:00,59.7,37.2,30.25,SW,218,4.0,6.9,43,0.00,CLR,,0.00,WeatherDisplay:10.37,2013-03-28 18:05:00,
2013-03-28 13:10:00,59.4,36.8,30.25,South,170,6.3,8.1,43,0.00,CLR,,0.00,WeatherDisplay:10.37,2013-03-28 18:10:00,
2013-03-28 13:15:00,59.4,36.8,30.25,SE,126,4.5,5.8,43,0.00,CLR,,0.00,WeatherDisplay:10.37,2013-03-28 18:15:00,
2013-03-28 13:20:00,59.7,37.2,30.22,SSE,161,4.9,4.9,43,0.00,CLR,,0.00,WeatherDisplay:10.37,2013-03-28 18:20:00,
2013-03-28 13:25:00,59.9,37.3,30.22,ESE,122,4.5,4.6,43,0.00,CLR,,0.00,WeatherDisplay:10.37,2013-03-28 18:25:00,
2013-03-28 13:30:00,60.1,37.5,30.22,SE,127,3.1,5.8,43,0.00,CLR,,0.00,WeatherDisplay:10.37,2013-03-28 18:30:00,
2013-03-28 13:35:00,60.1,37.5,30.22,ESE,102,4.9,8.1,43,0.00,CLR,,0.00,WeatherDisplay:10.37,2013-03-28 18:35:00,
2013-03-28 13:40:00,60.1,37.5,30.22,SE,139,4.9,8.1,43,0.00,CLR,,0.00,WeatherDisplay:10.37,2013-03-28 18:40:00,
2013-03-28 13:45:00,60.1,37.5,30.22,SSE,166,4.0,5.8,43,0.00,CLR,,0.00,WeatherDisplay:10.37,2013-03-28 18:45:00,
2013-03-28 13:50:00,60.1,37.5,30.22,SSE,168,3.1,5.8,43,0.00,CLR,,0.00,WeatherDisplay:10.37,2013-03-28 18:50:00,
2013-03-28 13:55:00,59.9,37.3,30.22,SE,141,4.9,5.8,43,0.00,CLR,,0.00,WeatherDisplay:10.37,2013-03-28 18:55:00,
2013-03-28 14:00:00,59.5,37.0,30.22,SE,130,3.6,5.8,43,0.00,CLR,,0.00,WeatherDisplay:10.37,2013-03-28 19:00:00,
2013-03-28 14:05:00,59.5,37.0,30.22,SE,136,3.1,5.8,43,0.00,CLR,,0.00,WeatherDisplay:10.37,2013-03-28 19:05:00,
2013-03-28 14:10:00,59.7,37.2,30.22,SE,138,5.4,6.3,43,0.00,CLR,,0.00,WeatherDisplay:10.37,2013-03-28 19:10:00,
2013-03-28 14:15:00,59.7,37.2,30.22,South,184,4.0,8.1,43,0.00,CLR,,0.00,WeatherDisplay:10.37,2013-03-28 19:15:00,
2013-03-28 14:20:00,60.1,37.5,30.19,SSE,162,3.6,4.9,43,0.00,CLR,,0.00,WeatherDisplay:10.37,2013-03-28 19:20:00,
2013-03-28 14:25:00,60.3,37.7,30.19,ESE,119,4.0,5.8,43,0.00,CLR,,0.00,WeatherDisplay:10.37,2013-03-28 19:25:00,
2013-03-28 14:30:00,60.4,37.8,30.19,SSE,163,4.9,8.1,43,0.00,CLR,,0.00,WeatherDisplay:10.37,2013-03-28 19:30:00,
2013-03-28 14:35:00,61.0,37.7,30.19,SE,131,4.0,4.6,42,0.00,CLR,,0.00,WeatherDisplay:10.37,2013-03-28 19:35:00,
2013-03-28 14:40:00,61.5,38.2,30.19,SSW,211,4.9,5.8,42,0.00,CLR,,0.00,WeatherDisplay:10.37,2013-03-28 19:40:00,
2013-03-28 14:45:00,61.7,38.4,30.19,South,176,4.0,8.1,42,0.00,CLR,,0.00,WeatherDisplay:10.37,2013-03-28 19:45:00,
2013-03-28 14:50:00,61.7,38.4,30.19,South,173,4.9,9.2,42,0.00,CLR,,0.00,WeatherDisplay:10.37,2013-03-28 19:50:00,
2013-03-28 14:55:00,61.3,38.0,30.19,SSW,208,2.7,5.8,42,0.00,CLR,,0.00,WeatherDisplay:10.37,2013-03-28 19:55:00,
2013-03-28 15:00:00,61.5,38.2,30.19,SE,138,4.9,6.3,42,0.00,CLR,,0.00,WeatherDisplay:10.37,2013-03-28 20:00:00,
2013-03-28 15:05:00,61.3,38.0,30.19,SSE,149,4.0,8.1,42,0.00,CLR,,0.00,WeatherDisplay:10.37,2013-03-28 20:05:00,
2013-03-28 15:10:00,61.5,38.2,30.19,ESE,122,4.9,5.8,42,0.00,CLR,,0.00,WeatherDisplay:10.37,2013-03-28 20:10:00,
2013-03-28 15:15:00,61.7,38.4,30.19,SE,136,4.0,5.8,42,0.00,CLR,,0.00,WeatherDisplay:10.37,2013-03-28 20:15:00,
2013-03-28 15:20:00,61.9,38.5,30.17,SSE,165,5.8,8.1,42,0.00,CLR,,0.00,WeatherDisplay:10.37,2013-03-28 20:20:00,
2013-03-28 15:25:00,61.9,38.5,30.17,South,177,3.6,4.0,42,0.00,CLR,,0.00,WeatherDisplay:10.37,2013-03-28 20:25:00,
2013-03-28 15:30:00,62.1,38.7,30.17,SSE,151,4.5,5.8,42,0.00,CLR,,0.00,WeatherDisplay:10.37,2013-03-28 20:30:00,
2013-03-28 15:35:00,62.2,38.8,30.17,ESE,111,4.0,5.8,42,0.00,CLR,,0.00,WeatherDisplay:10.37,2013-03-28 20:35:00,
2013-03-28 15:40:00,62.4,39.0,30.17,ESE,110,4.9,5.8,42,0.00,CLR,,0.00,WeatherDisplay:10.37,2013-03-28 20:40:00,
2013-03-28 15:45:00,62.6,39.2,30.17,SSE,154,3.6,5.8,42,0.00,CLR,,0.00,WeatherDisplay:10.37,2013-03-28 20:45:00,
2013-03-28 15:50:00,62.6,39.2,30.17,WSW,255,3.6,5.8,42,0.00,CLR,,0.00,WeatherDisplay:10.37,2013-03-28 20:50:00,
2013-03-28 15:55:00,62.6,39.2,30.17,South,176,2.7,3.5,42,0.00,CLR,,0.00,WeatherDisplay:10.37,2013-03-28 20:55:00,
2013-03-28 16:00:00,62.8,39.3,30.17,ESE,117,4.9,6.9,42,0.00,CLR,,0.00,WeatherDisplay:10.37,2013-03-28 21:00:00,
2013-03-28 16:05:00,63.0,39.5,30.17,SE,145,4.5,8.1,42,0.00,CLR,,0.00,WeatherDisplay:10.37,2013-03-28 21:05:00,
2013-03-28 16:10:00,63.0,39.5,30.17,ESE,102,4.0,5.8,42,0.00,CLR,,0.00,WeatherDisplay:10.37,2013-03-28 21:10:00,
2013-03-28 16:15:00,63.0,39.5,30.17,SE,141,4.9,5.8,42,0.00,CLR,,0.00,WeatherDisplay:10.37,2013-03-28 21:15:00,
2013-03-28 16:20:00,63.0,39.5,30.17,SSE,160,2.2,3.5,42,0.00,CLR,,0.00,WeatherDisplay:10.37,2013-03-28 21:20:00,
2013-03-28 16:25:00,63.1,39.7,30.17,SE,136,4.5,5.8,42,0.00,CLR,,0.00,WeatherDisplay:10.37,2013-03-28 21:25:00,
2013-03-28 16:30:00,63.1,39.7,30.17,SSE,147,5.4,5.8,42,0.00,CLR,,0.00,WeatherDisplay:10.37,2013-03-28 21:30:00,
2013-03-28 16:35:00,63.1,39.7,30.17,SE,138,3.6,6.3,42,0.00,CLR,,0.00,WeatherDisplay:10.37,2013-03-28 21:35:00,
2013-03-28 16:40:00,63.1,39.7,30.17,ESE,107,4.5,6.3,42,0.00,CLR,,0.00,WeatherDisplay:10.37,2013-03-28 21:40:00,
2013-03-28 16:45:00,63.1,39.7,30.17,ESE,111,4.0,4.0,42,0.00,CLR,,0.00,WeatherDisplay:10.37,2013-03-28 21:45:00,
2013-03-28 16:50:00,63.1,39.7,30.14,ESE,122,4.5,8.1,42,0.00,CLR,,0.00,WeatherDisplay:10.37,2013-03-28 21:50:00,
2013-03-28 16:55:00,63.1,39.7,30.14,South,179,5.8,6.7,42,0.00,CLR,,0.00,WeatherDisplay:10.37,2013-03-28 21:55:00,
2013-03-28 17:00:00,62.8,39.3,30.14,ESE,114,3.1,4.6,42,0.00,CLR,,0.00,WeatherDisplay:10.37,2013-03-28 22:00:00,
2013-03-28 17:05:00,62.6,39.2,30.14,East,100,2.2,5.8,42,0.00,CLR,,0.00,WeatherDisplay:10.37,2013-03-28 22:05:00,
2013-03-28 17:10:00,62.6,39.2,30.14,SE,141,2.2,5.8,42,0.00,CLR,,0.00,WeatherDisplay:10.37,2013-03-28 22:10:00,
2013-03-28 17:15:00,62.6,39.2,30.14,ESE,108,3.1,3.5,42,0.00,CLR,,0.00,WeatherDisplay:10.37,2013-03-28 22:15:00,
2013-03-28 17:20:00,62.6,39.2,30.17,SSE,160,3.1,3.5,42,0.00,CLR,,0.00,WeatherDisplay:10.37,2013-03-28 22:20:00,
2013-03-28 17:25:00,63.0,39.5,30.17,SSE,162,0.0,3.5,42,0.00,CLR,,0.00,WeatherDisplay:10.37,2013-03-28 22:25:00,
2013-03-28 17:30:00,63.0,39.5,30.17,SE,144,3.1,3.5,42,0.00,CLR,,0.00,WeatherDisplay:10.37,2013-03-28 22:30:00,
2013-03-28 17:35:00,62.8,39.3,30.14,SE,146,2.2,4.6,42,0.00,CLR,,0.00,WeatherDisplay:10.37,2013-03-28 22:35:00,
2013-03-28 17:40:00,62.6,39.2,30.14,ESE,118,3.6,5.8,42,0.00,CLR,,0.00,WeatherDisplay:10.37,2013-03-28 22:40:00,
2013-03-28 17:45:00,62.4,39.0,30.14,ESE,108,2.2,3.5,42,0.00,CLR,,0.00,WeatherDisplay:10.37,2013-03-28 22:45:00,
2013-03-28 17:50:00,62.6,39.2,30.14,East,98,4.0,5.8,42,0.00,CLR,,0.00,WeatherDisplay:10.37,2013-03-28 22:50:00,
2013-03-28 17:55:00,63.0,39.5,30.14,ESE,113,2.2,3.5,42,0.00,CLR,,0.00,WeatherDisplay:10.37,2013-03-28 22:55:00,
2013-03-28 18:00:00,63.1,39.7,30.14,SE,134,3.6,4.6,42,0.00,CLR,,0.00,WeatherDisplay:10.37,2013-03-28 23:00:00,
2013-03-28 18:05:00,63.0,39.5,30.14,SE,126,2.2,5.8,42,0.00,CLR,,0.00,WeatherDisplay:10.37,2013-03-28 23:05:00,
2013-03-28 18:10:00,62.8,39.3,30.14,SSE,167,0.0,2.3,42,0.00,CLR,,0.00,WeatherDisplay:10.37,2013-03-28 23:10:00,
2013-03-28 18:15:00,62.6,39.2,30.14,SE,141,3.6,4.0,42,0.00,CLR,,0.00,WeatherDisplay:10.37,2013-03-28 23:15:00,
2013-03-28 18:20:00,62.4,39.0,30.14,SE,130,2.7,5.8,42,0.00,CLR,,0.00,WeatherDisplay:10.37,2013-03-28 23:20:00,
2013-03-28 18:25:00,62.2,38.8,30.14,ESE,117,2.7,3.5,42,0.00,CLR,,0.00,WeatherDisplay:10.37,2013-03-28 23:25:00,
2013-03-28 18:30:00,62.1,38.7,30.14,East,89,0.0,3.5,42,0.00,CLR,,0.00,WeatherDisplay:10.37,2013-03-28 23:30:00,
2013-03-28 18:35:00,61.9,38.5,30.14,East,93,3.6,5.8,42,0.00,CLR,,0.00,WeatherDisplay:10.37,2013-03-28 23:35:00,
2013-03-28 18:40:00,61.5,38.2,30.14,ENE,76,3.1,3.5,42,0.00,CLR,,0.00,WeatherDisplay:10.37,2013-03-28 23:40:00,
2013-03-28 18:45:00,61.0,37.7,30.14,ESE,122,2.2,3.5,42,0.00,CLR,,0.00,WeatherDisplay:10.37,2013-03-28 23:45:00,
2013-03-28 18:50:00,60.6,38.0,30.14,ESE,102,2.2,3.5,43,0.00,CLR,,0.00,WeatherDisplay:10.37,2013-03-28 23:50:00,
2013-03-28 18:55:00,60.3,37.7,30.14,ESE,109,2.7,3.5,43,0.00,CLR,,0.00,WeatherDisplay:10.37,2013-03-28 23:55:00,
2013-03-28 19:00:00,59.9,37.3,30.14,ESE,105,2.7,3.5,43,0.00,CLR,,0.00,WeatherDisplay:10.37,2013-03-29 00:00:00,
2013-03-28 19:05:00,59.4,36.8,30.14,ESE,119,0.0,3.5,43,0.00,CLR,,0.00,WeatherDisplay:10.37,2013-03-29 00:05:00,
2013-03-28 19:10:00,59.0,36.5,30.14,ESE,118,0.0,0.0,43,0.00,CLR,,0.00,WeatherDisplay:10.37,2013-03-29 00:10:00,
2013-03-28 19:15:00,58.6,36.2,30.14,ESE,106,0.0,3.5,43,0.00,CLR,,0.00,WeatherDisplay:10.37,2013-03-29 00:15:00,
2013-03-28 19:20:00,58.3,35.9,30.14,ESE,105,0.0,0.0,43,0.00,CLR,,0.00,WeatherDisplay:10.37,2013-03-29 00:20:00,
2013-03-28 19:25:00,57.9,35.5,30.14,ESE,105,0.0,0.0,43,0.00,CLR,,0.00,WeatherDisplay:10.37,2013-03-29 00:25:00,
2013-03-28 19:30:00,57.6,35.2,30.14,ESE,105,0.0,0.0,43,0.00,CLR,,0.00,WeatherDisplay:10.37,2013-03-29 00:30:00,
2013-03-28 19:35:00,57.2,34.9,30.14,ESE,105,0.0,0.0,43,0.00,CLR,,0.00,WeatherDisplay:10.37,2013-03-29 00:35:00,
2013-03-28 19:40:00,56.8,34.6,30.14,ESE,105,0.0,0.0,43,0.00,CLR,,0.00,WeatherDisplay:10.37,2013-03-29 00:40:00,
2013-03-28 19:45:00,56.5,34.2,30.14,ESE,106,0.0,0.0,43,0.00,CLR,,0.00,WeatherDisplay:10.37,2013-03-29 00:45:00,
2013-03-28 19:50:00,56.3,34.1,30.14,ESE,105,0.0,0.0,43,0.00,CLR,,0.00,WeatherDisplay:10.37,2013-03-29 00:50:00,
2013-03-28 19:55:00,56.1,33.9,30.14,ESE,105,0.0,0.0,43,0.00,CLR,,0.00,WeatherDisplay:10.37,2013-03-29 00:55:00,
2013-03-28 20:00:00,55.9,33.7,30.14,ESE,105,0.0,0.0,43,0.00,CLR,,0.00,WeatherDisplay:10.37,2013-03-29 01:00:00,
2013-03-28 20:05:00,55.6,33.4,30.14,ESE,105,0.0,0.0,43,0.00,CLR,,0.00,WeatherDisplay:10.37,2013-03-29 01:05:00,
2013-03-28 20:10:00,55.2,33.7,30.14,ESE,105,0.0,0.0,44,0.00,CLR,,0.00,WeatherDisplay:10.37,2013-03-29 01:10:00,
2013-03-28 20:15:00,54.9,33.3,30.14,ESE,105,0.0,0.0,44,0.00,CLR,,0.00,WeatherDisplay:10.37,2013-03-29 01:15:00,
2013-03-28 20:20:00,54.5,33.0,30.14,ESE,105,0.0,0.0,44,0.00,CLR,,0.00,WeatherDisplay:10.37,2013-03-29 01:20:00,
2013-03-28 20:25:00,54.3,32.8,30.14,ESE,105,0.0,0.0,44,0.00,CLR,,0.00,WeatherDisplay:10.37,2013-03-29 01:25:00,
2013-03-28 20:30:00,54.0,32.5,30.14,ESE,105,0.0,0.0,44,0.00,CLR,,0.00,WeatherDisplay:10.37,2013-03-29 01:30:00,
2013-03-28 20:35:00,53.6,32.2,30.14,ESE,105,0.0,0.0,44,0.00,CLR,,0.00,WeatherDisplay:10.37,2013-03-29 01:35:00,
2013-03-28 20:40:00,53.2,31.9,30.14,ESE,105,0.0,0.0,44,0.00,CLR,,0.00,WeatherDisplay:10.37,2013-03-29 01:40:00,
2013-03-28 20:45:00,53.1,31.7,30.14,ESE,105,0.0,0.0,44,0.00,CLR,,0.00,WeatherDisplay:10.37,2013-03-29 01:45:00,
2013-03-28 20:50:00,53.2,31.9,30.14,ESE,102,0.0,3.5,44,0.00,CLR,,0.00,WeatherDisplay:10.37,2013-03-29 01:50:00,
2013-03-28 20:55:00,53.4,32.0,30.14,SSE,149,0.0,0.0,44,0.00,CLR,,0.00,WeatherDisplay:10.37,2013-03-29 01:55:00,
2013-03-28 21:00:00,53.1,31.7,30.14,SSE,151,0.0,2.3,44,0.00,CLR,,0.00,WeatherDisplay:10.37,2013-03-29 02:00:00,
2013-03-28 21:05:00,52.7,31.4,30.14,SSE,151,0.0,0.0,44,0.00,CLR,,0.00,WeatherDisplay:10.37,2013-03-29 02:05:00,
2013-03-28 21:10:00,52.7,31.4,30.14,SSE,151,0.0,0.0,44,0.00,CLR,,0.00,WeatherDisplay:10.37,2013-03-29 02:10:00,
2013-03-28 21:15:00,52.7,31.4,30.14,SSE,151,0.0,0.0,44,0.00,CLR,,0.00,WeatherDisplay:10.37,2013-03-29 02:15:00,
2013-03-28 21:20:00,52.5,31.2,30.17,SSE,151,0.0,0.0,44,0.00,CLR,,0.00,WeatherDisplay:10.37,2013-03-29 02:20:00,
2013-03-28 21:25:00,52.5,31.2,30.17,SSE,151,0.0,0.0,44,0.00,CLR,,0.00,WeatherDisplay:10.37,2013-03-29 02:25:00,
2013-03-28 21:30:00,52.5,31.2,30.17,SSE,151,0.0,0.0,44,0.00,CLR,,0.00,WeatherDisplay:10.37,2013-03-29 02:30:00,
2013-03-28 21:35:00,52.5,32.9,30.17,SSE,151,0.0,0.0,47,0.00,CLR,,0.00,WeatherDisplay:10.37,2013-03-29 02:35:00,
2013-03-28 21:40:00,52.5,32.9,30.17,SSE,151,0.0,0.0,47,0.00,CLR,,0.00,WeatherDisplay:10.37,2013-03-29 02:40:00,
2013-03-28 21:45:00,52.5,32.9,30.17,SSE,151,0.0,0.0,47,0.00,CLR,,0.00,WeatherDisplay:10.37,2013-03-29 02:45:00,
2013-03-28 21:50:00,52.7,33.0,30.17,SSE,151,0.0,0.0,47,0.00,CLR,,0.00,WeatherDisplay:10.37,2013-03-29 02:50:00,
2013-03-28 21:55:00,52.7,33.0,30.17,SSE,151,0.0,0.0,47,0.00,CLR,,0.00,WeatherDisplay:10.37,2013-03-29 02:55:00,
2013-03-28 22:00:00,52.5,32.9,30.17,SSE,151,0.0,0.0,47,0.00,CLR,,0.00,WeatherDisplay:10.37,2013-03-29 03:00:00,
2013-03-28 22:05:00,52.5,32.9,30.17,SSE,151,0.0,0.0,47,0.00,CLR,,0.00,WeatherDisplay:10.37,2013-03-29 03:05:00,
2013-03-28 22:10:00,52.3,32.7,30.17,SSE,151,0.0,0.0,47,0.00,CLR,,0.00,WeatherDisplay:10.37,2013-03-29 03:10:00,
2013-03-28 22:15:00,52.3,32.7,30.17,SSE,151,0.0,0.0,47,0.00,CLR,,0.00,WeatherDisplay:10.37,2013-03-29 03:15:00,
2013-03-28 22:20:00,52.2,32.5,30.17,SSE,151,0.0,0.0,47,0.00,CLR,,0.00,WeatherDisplay:10.37,2013-03-29 03:20:00,
2013-03-28 22:25:00,52.3,32.7,30.17,SSE,151,0.0,0.0,47,0.00,CLR,,0.00,WeatherDisplay:10.37,2013-03-29 03:25:00,
2013-03-28 22:30:00,52.3,32.7,30.17,SSE,151,0.0,0.0,47,0.00,CLR,,0.00,WeatherDisplay:10.37,2013-03-29 03:30:00,
2013-03-28 22:35:00,52.5,32.9,30.17,SSE,151,0.0,0.0,47,0.00,CLR,,0.00,WeatherDisplay:10.37,2013-03-29 03:35:00,
2013-03-28 22:40:00,52.7,33.0,30.17,SSE,151,0.0,0.0,47,0.00,CLR,,0.00,WeatherDisplay:10.37,2013-03-29 03:40:00,
2013-03-28 22:45:00,52.7,33.0,30.17,SSE,151,0.0,0.0,47,0.00,CLR,,0.00,WeatherDisplay:10.37,2013-03-29 03:45:00,
2013-03-28 22:50:00,52.7,33.0,30.17,SSE,151,0.0,0.0,47,0.00,CLR,,0.00,WeatherDisplay:10.37,2013-03-29 03:50:00,
2013-03-28 22:55:00,52.7,33.0,30.17,SSE,151,0.0,0.0,47,0.00,CLR,,0.00,WeatherDisplay:10.37,2013-03-29 03:55:00,
2013-03-28 23:00:00,52.7,33.0,30.17,SSE,151,0.0,0.0,47,0.00,CLR,,0.00,WeatherDisplay:10.37,2013-03-29 04:00:00,
2013-03-28 23:01:00,52.7,33.0,30.17,SSE,151,0.0,0.0,47,0.00,CLR,,0.00,WeatherDisplay:10.37,2013-03-29 04:01:00,
2013-03-28 23:02:00,52.7,33.0,30.17,SSE,151,0.0,0.0,47,0.00,CLR,,0.00,WeatherDisplay:10.37,2013-03-29 04:02:00,
2013-03-28 23:07:00,52.7,33.0,30.17,SSE,151,0.0,0.0,47,0.00,CLR,,0.00,WeatherDisplay:10.37,2013-03-29 04:07:00,
2013-03-28 23:12:00,52.7,33.0,30.17,SSE,151,0.0,0.0,47,0.00,CLR,,0.00,WeatherDisplay:10.37,2013-03-29 04:12:00,
2013-03-28 23:13:00,52.7,33.0,30.17,SSE,151,0.0,0.0,47,0.00,CLR,,0.00,WeatherDisplay:10.37,2013-03-29 04:13:00,
2013-03-28 23:18:00,52.7,33.0,30.17,SSE,151,0.0,0.0,47,0.00,CLR,,0.00,WeatherDisplay:10.37,2013-03-29 04:18:00,
2013-03-28 23:23:00,52.7,33.0,30.17,SSE,151,0.0,0.0,47,0.00,CLR,,0.00,WeatherDisplay:10.37,2013-03-29 04:23:00,
2013-03-28 23:28:00,52.5,32.9,30.17,SSE,151,0.0,0.0,47,0.00,CLR,,0.00,WeatherDisplay:10.37,2013-03-29 04:28:00,
2013-03-28 23:33:00,52.3,32.7,30.17,SSE,151,0.0,0.0,47,0.00,CLR,,0.00,WeatherDisplay:10.37,2013-03-29 04:33:00,
2013-03-28 23:39:00,52.3,32.7,30.17,SSE,151,0.0,0.0,47,0.00,CLR,,0.00,WeatherDisplay:10.37,2013-03-29 04:39:00,
2013-03-28 23:44:00,52.3,32.7,30.17,SSE,151,0.0,0.0,47,0.00,CLR,,0.00,WeatherDisplay:10.37,2013-03-29 04:44:00,
2013-03-28 23:49:00,52.5,32.9,30.17,SSE,151,0.0,0.0,47,0.00,CLR,,0.00,WeatherDisplay:10.37,2013-03-29 04:49:00,
2013-03-28 23:54:00,52.5,33.9,30.17,SSE,151,0.0,0.0,49,0.00,CLR,,0.00,WeatherDisplay:10.37,2013-03-29 04:54:00,
2013-03-28 23:59:00,52.5,33.9,30.17,SSE,151,0.0,0.0,49,0.00,CLR,,0.00,WeatherDisplay:10.37,2013-03-29 04:59:00,